Weather in Zakotne

Ukraine / Luhansk Region     49°28′22″N   38°59′04″E
temp.,
°C
wind,
m/s
gust,
m/s
humid.,
%
clouds,
%
prec.,
mm/h
press.,
hPa
HPBL,
m
20 april, tue
tue2000:00+10e2373100 0.0 101463
03:00+10ene368099 0.1 1012162
06:00+9ene4887100 0.3 1011292
09:00+12e5774100 0.3 1010778
12:00+13e7981100 0.8 1006853
15:00+12se61091100 10.9 1004716
18:00+11sse379595 3.6 1002399
21:00+10s6139499 5.0 1002608
21 april, wed
wed2100:00+9s7148990 0.1 1002702
03:00+9w91489100 0.4 1004915
06:00+9wsw51190100 0.1 1008742
09:00+10sw698483 0.3 1011741
12:00+14wsw795799 0.3 10121735
15:00+15wsw7944100 0.3 10132385
18:00+13sw475683 0.1 1015736
21:00+9ssw347512 0.5 101750
22 april, thu
thu2200:00+8ssw37835 0.5 1018137
03:00+7ssw38895 0.5 1018148
06:00+7ssw37915 0.0 1019151
09:00+13sw46675 0.0 1020626
12:00+16sw56518 0.4 10201789
15:00+16sw3549100 0.6 10201348
18:00+15sw225787 0.0 102027
21:00+12s225811 0.0 102111
23 april, fri
fri2300:00+10s11685 0.0 102210
03:00+9s11736 0.1 102110
06:00+9s117377 0.0 102211
09:00+13ssw236399 0.0 1022328
12:00+17ssw34515 0.0 10211115
15:00+17sw3446100 0.0 10201082
18:00+16ssw355487 0.0 1019229
21:00+12s356483 0.0 101978
24 april, sat
sat2400:00+12s3763100 0.0 1018168
03:00+9ssw387721 0.0 1017153
06:00+8s31082100 0.0 1016251
09:00+12ssw61065100 0.0 1014704
12:00+8w81181100 0.7 1015563
15:00+10w795936 0.8 10151509
18:00+10w7115830 0.1 10151709
21:00+6w612550 0.1 1017628